Flag for U.S.A. Weather past 2 weeks in Duluth, Minnesota, U.S.A.

Now
45 °F

Sunny.


Feels Like: 43 °F
Forecast: 48 / 72 °F
Wind: 3 mph from Northeast

Location: Sky Harbor Airport

Current Time: May 22, 2015 at 7:03:08 PM

Latest Report: May 22, 2015 at 6:34 PM


Visibility: 10 mi

Pressure: 30.18 "Hg

Humidity: 76%

Dew point: 37 °F

Location of DuluthLocation

Historic Weather in Duluth — Graph

°F

Duluth temperature yesterday

Maximum temperature yesterday: 63 °F (at 7:34 PM)
Minimum temperature yesterday: 46 °F (at 5:54 AM)
Average temperature yesterday: 53 °F

Past Weeks' High & Low Weather Summary

 TemperatureHumidityPressure
High66 °F (May 20, 5:14 PM)100% (May 7, 6:54 PM)30.49 "Hg (May 7, 6:54 PM)
Low37 °F (May 10, 4:53 PM)17% (May 20, 5:34 PM)29.55 "Hg (May 17, 8:33 PM)
Average44 °F80%30.06 "Hg
* Reported May 7 5:13 PM — May 22 5:54 PM, Duluth, Weather by CustomWeather, © 2015

Note: Actual official high and low records may vary slightly from our data, if they occured in-between our weather recording intervals... More about our weather records

Advertising

Duluth weather history for previous 24 hours

 ConditionsComfort  
Time TempWeatherWind HumidityBarometerVisibility
5:54 PM
Fri, May 22
45 °FSunny.6 mph81%30.19 "Hg10 mi
5:34 PM46 °FSunny.6 mph76%30.19 "Hg10 mi
5:14 PM46 °FSunny.7 mph76%30.19 "Hg10 mi
4:54 PM46 °FSunny.8 mph76%30.19 "Hg10 mi
4:34 PM46 °FSunny.8 mph76%30.19 "Hg10 mi
4:14 PM48 °FSunny.7 mph66%30.20 "Hg10 mi
3:54 PM48 °FSunny.7 mph62%30.20 "Hg10 mi
3:34 PM48 °FSunny.8 mph66%30.20 "Hg10 mi
3:14 PM46 °FSunny.6 mph76%30.21 "Hg10 mi
2:54 PM48 °FSunny.6 mph71%30.21 "Hg10 mi
2:34 PM48 °FSunny.6 mph71%30.21 "Hg10 mi
2:13 PM48 °FSunny.7 mph71%30.22 "Hg10 mi
1:54 PM48 °FSunny.9 mph66%30.22 "Hg10 mi
1:34 PM48 °FSunny.8 mph71%30.22 "Hg10 mi
1:14 PM50 °FSunny.9 mph67%30.22 "Hg10 mi
12:54 PM50 °FSunny.5 mph62%30.22 "Hg10 mi
12:34 PM48 °FScattered clouds.3 mph66%30.22 "Hg10 mi
12:14 PM48 °FSunny.5 mph66%30.22 "Hg10 mi
11:54 AM48 °FSunny.6 mph66%30.23 "Hg10 mi
11:34 AM48 °FSunny.5 mph66%30.23 "Hg10 mi
11:14 AM48 °FSunny.3 mph66%30.23 "Hg10 mi
10:54 AM46 °FSunny.3 mph71%30.24 "Hg10 mi
10:34 AM46 °FSunny.No wind71%30.24 "Hg10 mi
10:14 AM46 °FSunny.3 mph71%30.25 "Hg10 mi
9:54 AM45 °FSunny.3 mph76%30.25 "Hg10 mi
9:34 AM45 °FSunny.5 mph76%30.25 "Hg10 mi
9:14 AM45 °FSunny.3 mph76%30.25 "Hg10 mi
8:54 AM46 °FCool.3 mph71%30.25 "HgN/A
8:34 AM46 °FSunny.5 mph71%30.24 "Hg10 mi
8:14 AM45 °FSunny.8 mph76%30.24 "Hg10 mi
7:53 AM45 °FSunny.8 mph76%30.23 "Hg10 mi
7:34 AM45 °FSunny.8 mph76%30.22 "Hg10 mi
7:14 AM45 °FSunny.7 mph76%30.22 "Hg10 mi
6:54 AM45 °FSunny.7 mph76%30.21 "Hg10 mi
6:34 AM45 °FSunny.3 mph76%30.20 "Hg10 mi
6:14 AM43 °FClear.No wind81%30.20 "Hg10 mi
5:54 AM43 °FClear.No wind81%30.19 "Hg10 mi
5:34 AM45 °FClear.No wind76%30.19 "Hg10 mi
5:14 AM45 °FClear.No wind76%30.18 "Hg10 mi
4:54 AM45 °FClear.No wind76%30.17 "Hg10 mi
4:34 AM46 °FClear.No wind71%30.16 "Hg10 mi
4:14 AM45 °FClear.No wind76%30.16 "Hg10 mi
3:54 AM46 °FClear.No wind71%30.16 "Hg10 mi
3:34 AM46 °FClear.No wind71%30.15 "Hg10 mi
3:14 AM46 °FClear.No wind76%30.14 "Hg10 mi
2:54 AM48 °FClear.No wind71%30.14 "Hg10 mi
2:34 AM48 °FClear.No wind82%30.13 "Hg10 mi
2:14 AM48 °FClear.No wind62%30.12 "Hg10 mi
1:54 AM52 °FClear.No wind50%30.12 "Hg10 mi
1:34 AM52 °FClear.No wind50%30.12 "Hg10 mi
1:14 AM52 °FClear.No wind50%30.12 "Hg10 mi
12:54 AM54 °FClear.No wind44%30.11 "Hg10 mi
12:34 AM54 °FClear.No wind51%30.11 "Hg10 mi
12:14 AM54 °FClear.No wind47%30.10 "Hg10 mi
11:54 PM
Thu, May 21
52 °FClear.No wind54%30.10 "Hg10 mi
11:34 PM54 °FClear.No wind51%30.09 "Hg10 mi
11:14 PM52 °FClear.No wind58%30.08 "Hg10 mi
10:54 PM54 °FClear.5 mph54%30.08 "Hg10 mi
10:34 PM52 °FClear.8 mph62%30.08 "Hg10 mi
10:14 PM52 °FClear.10 mph72%30.07 "Hg10 mi
9:54 PM55 °FClear.10 mph47%30.06 "Hg10 mi
9:34 PM55 °FSunny.9 mph55%30.06 "Hg10 mi
9:14 PM59 °FSunny.10 mph34%30.05 "Hg10 mi
8:54 PM57 °FSunny.10 mph41%30.04 "Hg10 mi
8:34 PM59 °FSunny.12 mph39%30.03 "Hg10 mi
8:14 PM59 °FSunny.9 mph45%30.03 "Hg10 mi
7:54 PM61 °FSunny.12 mph42%30.02 "Hg10 mi
7:34 PM63 °FSunny.15 mph34%30.01 "Hg10 mi
7:14 PM61 °FSunny.8 mph39%30.01 "Hg10 mi
Weather by CustomWeather, © 2015

See weather overviewHow to use our weather pages